{"data":{"norad_id":57450,"intl_designator":"2023-105W","name":"STARLINK-30217","alt_names":[],"object_type":"PAYLOAD","status":"ACTIVE","operator":null,"country":"US","launch_date":"2023-07-24","launch_site_code":"AFETR","launch_vehicle":null,"mission":null,"orbit_class":"UNKNOWN","rcs_meters":null,"size_class":null,"mass_kg":null,"dimensions":null,"purposes":["comms"],"wikipedia_slug":null,"has_3d_model":false,"image_url":null,"decayed_at":null,"tle_current":{"epoch":"2026-05-25T03:21:03.227616Z","epoch_age_seconds":63330,"freshness":"FRESH","line1":"1 57450U 23105W   26145.13962069 -.00038118  00000+0 -13768-2 0  9995","line2":"2 57450  43.0041 177.1278 0001850 298.5920  61.4746 15.27719753157409","mean_motion":15.27719753,"eccentricity":0.000185,"inclination_deg":43.0041,"raan_deg":177.1278,"arg_perigee_deg":298.592,"mean_anomaly_deg":61.4746,"bstar":-0.0013768,"rev_number":15740,"period_min":94.258125364437,"perigee_km":481.3614151663,"apogee_km":483.89989919946,"semimajor_km":6860.7676571829,"source":"CELESTRAK","updated_at":"2026-05-25T13:38:18.322554Z"}}}